When you browse on this site, cookies collect data to enhance your experience and personalize the content and advertising you see.
Visit our Privacy Policy to learn more. By continuing to use the site, you agree to this use of cookies and data.
  • In Austria
  • List of Countries
  • For 7 days
  • Water Temperature
  • Satellite Maps
  • Weather Map
  • News
  • Weather Widgets
  • user-avatar
    Login

    Hourly Weather Baku

    Today, 19 May, Sunday

    Time Temperature Precipitation Wind Pressure Humidity
    00:00 +22°C° 0 mm 4 mps 756 mmHg 65%
    01:00 +22°C° 0 mm 4 mps 755 mmHg 65%
    02:00 +22°C° 0 mm 4 mps 755 mmHg 66%
    03:00 +21°C° 0 mm 5 mps 755 mmHg 68%
    04:00 +21°C° 0 mm 5 mps 755 mmHg 67%
    05:00 +22°C° 0 mm 5 mps 755 mmHg 66%
    06:00 +22°C° 0 mm 6 mps 755 mmHg 66%
    07:00 +23°C° 0 mm 6 mps 755 mmHg 61%
    08:00 +24°C° 0 mm 7 mps 755 mmHg 56%
    09:00 +27°C° 0 mm 7 mps 755 mmHg 50%
    10:00 +28°C° 0 mm 7 mps 755 mmHg 48%
    11:00 +29°C° 0 mm 7 mps 754 mmHg 46%
    12:00 +30°C° 0 mm 7 mps 754 mmHg 44%
    13:00 +30°C° 0 mm 7 mps 754 mmHg 43%
    14:00 +30°C° 0 mm 7 mps 754 mmHg 43%
    15:00 +32°C° 0 mm 5 mps 754 mmHg 40%
    16:00 +29°C° 0.1 mm 5 mps 754 mmHg 45%
    17:00 +28°C° 0.1 mm 4 mps 754 mmHg 50%
    18:00 +26°C° 0.1 mm 3 mps 754 mmHg 55%
    19:00 +25°C° 0 mm 4 mps 754 mmHg 60%
    20:00 +23°C° 0 mm 6 mps 755 mmHg 65%
    21:00 +22°C° 0 mm 7 mps 755 mmHg 70%
    22:00 +22°C° 0 mm 8 mps 755 mmHg 72%
    23:00 +22°C° 0 mm 8 mps 755 mmHg 73%

    Tomorrow, 20 May, Monday

    Time Temperature Precipitation Wind Pressure Humidity
    00:00 +21°C° 0 mm 9 mps 756 mmHg 74%
    01:00 +21°C° 0 mm 10 mps 756 mmHg 74%
    02:00 +21°C° 0 mm 10 mps 756 mmHg 73%
    03:00 +21°C° 0 mm 10 mps 756 mmHg 72%
    04:00 +21°C° 0.3 mm 10 mps 756 mmHg 70%
    05:00 +21°C° 0.3 mm 11 mps 756 mmHg 67%
    06:00 +21°C° 0.3 mm 11 mps 757 mmHg 65%
    07:00 +22°C° 0.5 mm 11 mps 757 mmHg 62%
    08:00 +22°C° 0.5 mm 11 mps 757 mmHg 59%
    09:00 +23°C° 0.5 mm 11 mps 758 mmHg 56%
    10:00 +23°C° 0.6 mm 11 mps 758 mmHg 54%
    11:00 +24°C° 0.6 mm 12 mps 758 mmHg 51%
    12:00 +24°C° 0.6 mm 12 mps 758 mmHg 49%
    13:00 +24°C° 0 mm 12 mps 758 mmHg 47%
    14:00 +24°C° 0 mm 12 mps 758 mmHg 45%
    15:00 +24°C° 0 mm 13 mps 758 mmHg 43%
    16:00 +24°C° 0 mm 12 mps 758 mmHg 43%
    17:00 +23°C° 0 mm 12 mps 759 mmHg 44%
    18:00 +23°C° 0 mm 11 mps 759 mmHg 45%
    19:00 +22°C° 0 mm 11 mps 759 mmHg 46%
    20:00 +22°C° 0 mm 11 mps 759 mmHg 47%
    21:00 +21°C° 0 mm 11 mps 760 mmHg 48%
    22:00 +21°C° 0.1 mm 11 mps 760 mmHg 50%
    23:00 +21°C° 0.1 mm 11 mps 760 mmHg 51%

    Day after tomorrow, 21 May, Tuesday

    Time Temperature Precipitation Wind Pressure Humidity
    00:00 +21°C° 0.1 mm 11 mps 760 mmHg 52%
    01:00 +21°C° 0 mm 11 mps 760 mmHg 54%
    02:00 +19°C° 0 mm 11 mps 760 mmHg 55%
    03:00 +19°C° 0 mm 11 mps 760 mmHg 56%
    04:00 +19°C° 0 mm 10 mps 761 mmHg 58%
    05:00 +19°C° 0 mm 10 mps 761 mmHg 60%
    06:00 +19°C° 0 mm 10 mps 761 mmHg 61%
    07:00 +21°C° 0 mm 10 mps 762 mmHg 59%
    08:00 +21°C° 0 mm 10 mps 762 mmHg 57%
    09:00 +21°C° 0 mm 10 mps 763 mmHg 54%
    10:00 +22°C° 0 mm 10 mps 763 mmHg 50%
    11:00 +22°C° 0 mm 10 mps 763 mmHg 47%
    12:00 +22°C° 0 mm 10 mps 764 mmHg 43%
    13:00 +22°C° 0 mm 10 mps 764 mmHg 42%
    14:00 +22°C° 0 mm 10 mps 764 mmHg 40%
    15:00 +22°C° 0 mm 10 mps 764 mmHg 39%
    16:00 +21°C° 0 mm 9 mps 764 mmHg 41%
    17:00 +21°C° 0 mm 9 mps 764 mmHg 42%
    18:00 +19°C° 0 mm 9 mps 764 mmHg 43%
    19:00 +19°C° 0 mm 9 mps 764 mmHg 45%
    20:00 +19°C° 0 mm 9 mps 764 mmHg 47%
    21:00 +18°C° 0 mm 9 mps 765 mmHg 49%
    22:00 +18°C° 0 mm 8 mps 765 mmHg 51%
    23:00 +18°C° 0 mm 8 mps 765 mmHg 52%

    22 May, Wednesday

    Time Temperature Precipitation Wind Pressure Humidity
    00:00 +18°C° 0 mm 7 mps 764 mmHg 53%
    01:00 +17°C° 0 mm 7 mps 764 mmHg 55%
    02:00 +17°C° 0 mm 6 mps 764 mmHg 57%
    03:00 +17°C° 0 mm 6 mps 764 mmHg 58%
    04:00 +17°C° 0 mm 5 mps 764 mmHg 57%
    05:00 +19°C° 0 mm 4 mps 764 mmHg 56%
    06:00 +19°C° 0 mm 4 mps 763 mmHg 55%
    07:00 +20°C° 0 mm 3 mps 763 mmHg 49%
    08:00 +21°C° 0 mm 3 mps 763 mmHg 43%
    09:00 +23°C° 0 mm 2 mps 763 mmHg 37%
    10:00 +24°C° 0 mm 3 mps 763 mmHg 34%
    11:00 +25°C° 0 mm 4 mps 762 mmHg 31%
    12:00 +26°C° 0 mm 4 mps 762 mmHg 28%
    13:00 +26°C° 0 mm 4 mps 761 mmHg 27%
    14:00 +27°C° 0 mm 5 mps 760 mmHg 25%
    15:00 +27°C° 0 mm 5 mps 760 mmHg 24%
    16:00 +27°C° 0 mm 5 mps 759 mmHg 25%
    17:00 +26°C° 0 mm 5 mps 759 mmHg 26%
    18:00 +26°C° 0 mm 5 mps 758 mmHg 27%
    19:00 +25°C° 0 mm 4 mps 759 mmHg 30%
    20:00 +25°C° 0 mm 4 mps 759 mmHg 32%
    21:00 +23°C° 0 mm 4 mps 759 mmHg 34%
    22:00 +23°C° 0 mm 4 mps 759 mmHg 34%
    23:00 +23°C° 0 mm 4 mps 759 mmHg 33%

    23 May, Thursday

    Time Temperature Precipitation Wind Pressure Humidity
    00:00 +23°C° 0 mm 5 mps 758 mmHg 32%
    01:00 +23°C° 0 mm 5 mps 758 mmHg 35%
    02:00 +23°C° 0 mm 5 mps 758 mmHg 39%
    03:00 +23°C° 0 mm 5 mps 758 mmHg 42%
    04:00 +22°C° 0 mm 6 mps 758 mmHg 49%
    05:00 +21°C° 0 mm 6 mps 758 mmHg 56%
    06:00 +20°C° 0 mm 7 mps 759 mmHg 62%
    07:00 +21°C° 0 mm 7 mps 759 mmHg 60%
    08:00 +22°C° 0 mm 8 mps 759 mmHg 58%
    09:00 +23°C° 0 mm 8 mps 759 mmHg 55%
    10:00 +23°C° 0 mm 8 mps 759 mmHg 54%
    11:00 +23°C° 0 mm 8 mps 759 mmHg 53%
    12:00 +24°C° 0 mm 8 mps 758 mmHg 51%
    13:00 +24°C° 0 mm 8 mps 758 mmHg 52%
    14:00 +23°C° 0 mm 8 mps 758 mmHg 53%
    15:00 +23°C° 0 mm 8 mps 758 mmHg 54%
    16:00 +23°C° 0 mm 8 mps 758 mmHg 55%
    17:00 +22°C° 0 mm 9 mps 758 mmHg 57%
    18:00 +21°C° 0 mm 9 mps 758 mmHg 58%
    19:00 +21°C° 0 mm 8 mps 759 mmHg 60%
    20:00 +21°C° 0 mm 8 mps 759 mmHg 61%
    21:00 +21°C° 0 mm 8 mps 760 mmHg 63%
    22:00 +21°C° 0 mm 6 mps 760 mmHg 63%
    23:00 +21°C° 0 mm 5 mps 760 mmHg 63%

    24 May, Friday

    Time Temperature Precipitation Wind Pressure Humidity
    00:00 +21°C° 0 mm 4 mps 759 mmHg 63%
    01:00 +21°C° 0 mm 3 mps 759 mmHg 63%
    02:00 +20°C° 0 mm 2 mps 759 mmHg 64%
    03:00 +21°C° 0 mm 1 mps 759 mmHg 64%
    04:00 +22°C° 0 mm 1 mps 759 mmHg 63%
    05:00 +21°C° 0 mm 2 mps 759 mmHg 61%
    06:00 +21°C° 0 mm 2 mps 760 mmHg 60%
    07:00 +23°C° 0 mm 2 mps 760 mmHg 55%
    08:00 +24°C° 0 mm 3 mps 760 mmHg 50%
    09:00 +26°C° 0 mm 3 mps 760 mmHg 45%
    10:00 +26°C° 0 mm 4 mps 760 mmHg 43%
    11:00 +27°C° 0 mm 5 mps 760 mmHg 41%
    12:00 +28°C° 0 mm 5 mps 759 mmHg 39%
    13:00 +28°C° 0 mm 6 mps 759 mmHg 39%
    14:00 +28°C° 0 mm 6 mps 759 mmHg 40%
    15:00 +28°C° 0 mm 7 mps 759 mmHg 40%
    16:00 +27°C° 0 mm 6 mps 759 mmHg 43%
    17:00 +26°C° 0 mm 6 mps 759 mmHg 45%
    18:00 +26°C° 0 mm 5 mps 759 mmHg 48%
    19:00 +25°C° 0 mm 5 mps 760 mmHg 51%
    20:00 +23°C° 0 mm 4 mps 760 mmHg 54%
    21:00 +24°C° 0 mm 3 mps 760 mmHg 57%
    22:00 +24°C° 0 mm 3 mps 760 mmHg 59%
    23:00 +22°C° 0 mm 3 mps 760 mmHg 61%
    Show more